Regional Weather Roundup
Issued by NWS

Home | Current Version | Previous Version | Graphics & Text | Print | Product List | Glossary On
Versions: 1 2 3 4 5 6 7 8 9 10 11 12 13 14 15 16 17 18 19 20 21 22 23 24 25 26 27 28 29 30 31 32 33 34 35 36 37 38 39 40 41 42 43 44 45 46 47 48 49 50
000
ASUS43 KTOP 240659
RWRKS

WEATHER ROUNDUP FOR KANSAS
NATIONAL WEATHER SERVICE GOODLAND KS
200 AM CDT THU MAY 24 2018

NOTE:  "FAIR" INDICATES FEW OR NO CLOUDS BELOW 12,000 FEET WITH NO
SIGNIFICANT WEATHER AND/OR OBSTRUCTIONS TO VISIBILITY.

KSZ001>006-013>018-027>032-041>047-240800-
NORTHWEST KANSAS

CITY           SKY/WX    TMP DP  RH WIND       PRES   REMARKS
GOODLAND       CLOUDY    64  57  78 S14       30.01R
HAYS           MOCLDY    70  59  68 S20G26    29.98R
HILL CITY      CLOUDY    70  57  63 S10G20    29.98S
RUSSELL        CLOUDY    67  61  81 S13       29.97S
$$

KSZ061>065-074>080-084>089-240800-
SOUTHWEST KANSAS

CITY           SKY/WX    TMP DP  RH WIND       PRES   REMARKS
DODGE CITY     CLOUDY    67  56  67 S21G32    30.03R
GARDEN CITY    MOCLDY    68  53  58 S25G36    30.01F
GREAT BEND     CLOUDY    68  58  70 S8        30.01R
LIBERAL        CLOUDY    68  55  63 S23G30    30.05F
$$

KSZ066>073-081>083-090>101-240800-
SOUTHEAST KANSAS

CITY           SKY/WX    TMP DP  RH WIND       PRES   REMARKS
CHANUTE        PTCLDY    69  68  96 SE9       30.07F
COFFEYVILLE    CLOUDY    69  67  93 SE6       30.07S
HUTCHINSON     CLOUDY    68  59  73 SE12      30.01R
MEDICINE LODGE   N/A     65  61  87 S14G25    30.07F
NEWTON         CLOUDY    70  64  81 S13       30.02F
PARSONS        CLOUDY    69  68  96 S5        30.08F
WICHITA INTL   CLOUDY    69  61  75 S10       30.02R
WICHITA JABRA  CLOUDY    70  62  76 S10       30.02F
WINFIELD       CLOUDY    70  66  87 S7        30.06F
$$

KSZ007>012-019>026-033>040-048>060-102>105-240800-
NORTHEAST KANSAS

CITY           SKY/WX    TMP DP  RH WIND       PRES   REMARKS
CONCORDIA      CLOUDY    72  64  76 S13G23    29.99R
EMPORIA        PTCLDY    68  66  93 S12       30.05S
LAWRENCE       CLOUDY    69  66  90 S7        30.05F
MANHATTAN      MOCLDY    71  64  78 CALM      30.02R
OLATHE IND     CLOUDY    68  65  90 S6        30.07F
OLATHE EXE     PTCLDY    67  65  93 SE8       30.07F
SALINA         CLOUDY    74  66  76 S7        29.99R
TOPEKA BILLARD CLOUDY    71  68  90 S7        30.05S
TOPEKA FORBES  CLOUDY    71  68  90 S9        30.06S
$$




USA.gov is the U.S. government's official web portal to all federal, state and local government web resources and services.